Time,TemperatureF,DewpointF,PressureIn,WindDirection,WindDirectionDegrees,WindSpeedMPH,WindSpeedGustMPH,Humidity,HourlyPrecipIn,Conditions,Clouds,dailyrainin,SoftwareType,DateUTC
2013-02-06 00:01:00,41.0,32.0,30.03,NNE,17,1.0,2.0,70,0.00,,,0.00,WeatherCatV1.10B1784,2013-02-06 05:01:00,
2013-02-06 00:06:00,41.3,32.3,30.03,NNE,17,0.0,2.0,70,0.00,,,0.00,WeatherCatV1.10B1784,2013-02-06 05:06:00,
2013-02-06 00:11:00,41.3,32.6,30.04,NNE,18,0.0,2.0,71,0.00,,,0.00,WeatherCatV1.10B1784,2013-02-06 05:11:00,
2013-02-06 00:16:00,41.2,32.5,30.04,NNE,18,1.0,1.0,71,0.00,,,0.00,WeatherCatV1.10B1784,2013-02-06 05:16:00,
2013-02-06 00:21:00,41.1,33.1,30.04,NNE,18,0.0,2.0,73,0.00,,,0.00,WeatherCatV1.10B1784,2013-02-06 05:21:00,
2013-02-06 00:26:00,41.2,32.9,30.04,NNE,18,0.0,0.0,72,0.00,,,0.00,WeatherCatV1.10B1784,2013-02-06 05:26:00,
2013-02-06 00:31:00,41.4,33.4,30.04,NNE,18,2.0,2.0,73,0.00,,,0.00,WeatherCatV1.10B1784,2013-02-06 05:31:00,
2013-02-06 00:36:00,41.5,33.5,30.04,NNE,25,1.0,2.0,73,0.00,,,0.00,WeatherCatV1.10B1784,2013-02-06 05:36:00,
2013-02-06 00:41:00,41.5,33.2,30.04,NNE,25,0.0,0.0,72,0.00,,,0.00,WeatherCatV1.10B1784,2013-02-06 05:41:00,
2013-02-06 00:46:00,41.3,33.3,30.04,East,80,0.0,0.0,73,0.00,,,0.00,WeatherCatV1.10B1784,2013-02-06 05:46:00,
2013-02-06 00:51:00,41.2,33.6,30.04,NNE,24,0.0,2.0,74,0.00,,,0.00,WeatherCatV1.10B1784,2013-02-06 05:51:00,
2013-02-06 00:56:00,41.2,33.6,30.05,NNE,24,0.0,0.0,74,0.00,,,0.00,WeatherCatV1.10B1784,2013-02-06 05:56:00,
2013-02-06 01:01:00,41.2,33.6,30.05,NE,43,1.0,2.0,74,0.00,,,0.00,WeatherCatV1.10B1784,2013-02-06 06:01:00,
2013-02-06 01:06:00,41.4,33.7,30.05,NE,43,0.0,1.0,74,0.00,,,0.00,WeatherCatV1.10B1784,2013-02-06 06:06:00,
2013-02-06 01:11:00,41.8,34.1,30.05,NE,42,0.0,2.0,74,0.00,,,0.00,WeatherCatV1.10B1784,2013-02-06 06:11:00,
2013-02-06 01:16:00,42.2,34.2,30.05,NE,40,2.0,3.0,73,0.00,,,0.00,WeatherCatV1.10B1784,2013-02-06 06:16:00,
2013-02-06 01:21:00,42.5,34.1,30.05,NNE,22,1.0,2.0,72,0.00,,,0.00,WeatherCatV1.10B1784,2013-02-06 06:21:00,
2013-02-06 01:26:00,42.6,34.6,30.05,NNE,23,1.0,2.0,73,0.00,,,0.00,WeatherCatV1.10B1784,2013-02-06 06:26:00,
2013-02-06 01:31:00,42.7,34.7,30.05,NNE,28,1.0,1.0,73,0.00,,,0.00,WeatherCatV1.10B1784,2013-02-06 06:31:00,
2013-02-06 01:36:00,42.9,34.9,30.05,NNE,21,1.0,2.0,73,0.00,,,0.00,WeatherCatV1.10B1784,2013-02-06 06:36:00,
2013-02-06 01:41:00,43.1,35.0,30.05,NNE,24,0.0,1.0,73,0.00,,,0.00,WeatherCatV1.10B1784,2013-02-06 06:41:00,
2013-02-06 01:46:00,43.3,35.2,30.05,NNE,23,1.0,2.0,73,0.00,,,0.00,WeatherCatV1.10B1784,2013-02-06 06:46:00,
2013-02-06 01:51:00,43.4,35.0,30.05,NNE,21,1.0,2.0,72,0.00,,,0.00,WeatherCatV1.10B1784,2013-02-06 06:51:00,
2013-02-06 01:56:00,43.4,35.3,30.05,NNE,18,1.0,2.0,73,0.00,,,0.00,WeatherCatV1.10B1784,2013-02-06 06:56:00,
2013-02-06 02:01:00,43.5,35.1,30.05,NE,45,0.0,2.0,72,0.00,,,0.00,WeatherCatV1.10B1784,2013-02-06 07:01:00,
2013-02-06 02:06:00,43.8,35.4,30.05,NE,46,1.0,5.0,72,0.00,,,0.00,WeatherCatV1.10B1784,2013-02-06 07:06:00,
2013-02-06 02:16:00,44.4,35.6,30.05,West,263,2.0,2.0,71,0.00,,,0.00,WeatherCatV1.10B1784,2013-02-06 07:16:00,
2013-02-06 02:21:00,44.9,35.7,30.05,ESE,123,0.0,1.0,70,0.00,,,0.00,WeatherCatV1.10B1784,2013-02-06 07:21:00,
2013-02-06 02:26:00,45.1,35.9,30.05,SSW,203,0.0,2.0,70,0.00,,,0.00,WeatherCatV1.10B1784,2013-02-06 07:26:00,
2013-02-06 02:31:00,45.1,35.9,30.06,West,263,0.0,3.0,70,0.00,,,0.00,WeatherCatV1.10B1784,2013-02-06 07:31:00,
2013-02-06 02:36:00,45.1,36.3,30.06,SW,215,4.0,4.0,71,0.00,,,0.00,WeatherCatV1.10B1784,2013-02-06 07:36:00,
2013-02-06 02:41:00,44.9,36.4,30.06,WSW,238,3.0,4.0,72,0.00,,,0.00,WeatherCatV1.10B1784,2013-02-06 07:41:00,
2013-02-06 02:46:00,44.7,36.6,30.06,SW,214,3.0,4.0,73,0.00,,,0.00,WeatherCatV1.10B1784,2013-02-06 07:46:00,
2013-02-06 02:51:00,44.5,36.7,30.06,South,183,3.0,3.0,74,0.00,,,0.00,WeatherCatV1.10B1784,2013-02-06 07:51:00,
2013-02-06 02:56:00,44.1,36.4,30.06,SSE,150,2.0,3.0,74,0.00,,,0.00,WeatherCatV1.10B1784,2013-02-06 07:56:00,
2013-02-06 03:01:00,43.6,36.2,30.06,South,176,2.0,4.0,75,0.00,,,0.00,WeatherCatV1.10B1784,2013-02-06 08:01:00,
2013-02-06 03:06:00,43.2,36.2,30.06,South,175,2.0,3.0,76,0.00,,,0.00,WeatherCatV1.10B1784,2013-02-06 08:06:00,
2013-02-06 03:11:00,42.8,36.1,30.06,South,182,1.0,4.0,77,0.00,,,0.00,WeatherCatV1.10B1784,2013-02-06 08:11:00,
2013-02-06 03:16:00,42.5,35.8,30.07,South,175,2.0,2.0,77,0.00,,,0.00,WeatherCatV1.10B1784,2013-02-06 08:16:00,
2013-02-06 03:21:00,42.2,35.8,30.06,SSW,200,2.0,4.0,78,0.00,,,0.00,WeatherCatV1.10B1784,2013-02-06 08:21:00,
2013-02-06 03:26:00,41.8,35.5,30.06,South,173,2.0,3.0,78,0.00,,,0.00,WeatherCatV1.10B1784,2013-02-06 08:26:00,
2013-02-06 03:31:00,41.6,35.3,30.07,SSE,161,1.0,2.0,78,0.00,,,0.00,WeatherCatV1.10B1784,2013-02-06 08:31:00,
2013-02-06 03:36:00,41.4,35.1,30.06,SSE,157,0.0,4.0,78,0.00,,,0.00,WeatherCatV1.10B1784,2013-02-06 08:36:00,
2013-02-06 03:41:00,41.4,35.1,30.06,SSE,163,0.0,4.0,78,0.00,,,0.00,WeatherCatV1.10B1784,2013-02-06 08:41:00,
2013-02-06 03:46:00,41.3,34.6,30.06,SSE,162,2.0,3.0,77,0.00,,,0.00,WeatherCatV1.10B1784,2013-02-06 08:46:00,
2013-02-06 03:51:00,41.1,34.4,30.07,SSW,194,2.0,4.0,77,0.00,,,0.00,WeatherCatV1.10B1784,2013-02-06 08:51:00,
2013-02-06 03:56:00,41.1,34.4,30.07,SSE,154,3.0,3.0,77,0.00,,,0.00,WeatherCatV1.10B1784,2013-02-06 08:56:00,
2013-02-06 04:01:00,41.0,34.4,30.07,SSE,161,2.0,3.0,77,0.00,,,0.00,WeatherCatV1.10B1784,2013-02-06 09:01:00,
2013-02-06 04:06:00,40.9,33.9,30.06,SW,215,3.0,4.0,76,0.00,,,0.00,WeatherCatV1.10B1784,2013-02-06 09:06:00,
2013-02-06 04:11:00,40.7,34.1,30.07,South,183,2.0,3.0,77,0.00,,,0.00,WeatherCatV1.10B1784,2013-02-06 09:11:00,
2013-02-06 04:16:00,40.5,33.5,30.07,SSE,165,2.0,3.0,76,0.00,,,0.00,WeatherCatV1.10B1784,2013-02-06 09:16:00,
2013-02-06 04:21:00,40.4,33.4,30.07,SSE,165,1.0,3.0,76,0.00,,,0.00,WeatherCatV1.10B1784,2013-02-06 09:21:00,
2013-02-06 04:26:00,40.4,33.4,30.07,South,184,0.0,4.0,76,0.00,,,0.00,WeatherCatV1.10B1784,2013-02-06 09:26:00,
2013-02-06 04:31:00,40.4,33.4,30.07,NE,43,0.0,2.0,76,0.00,,,0.00,WeatherCatV1.10B1784,2013-02-06 09:31:00,
2013-02-06 04:36:00,40.3,33.3,30.07,South,184,1.0,3.0,76,0.00,,,0.00,WeatherCatV1.10B1784,2013-02-06 09:36:00,
2013-02-06 04:41:00,40.2,33.2,30.08,SSW,192,0.0,2.0,76,0.00,,,0.00,WeatherCatV1.10B1784,2013-02-06 09:41:00,
2013-02-06 04:46:00,40.1,33.2,30.08,WSW,246,3.0,3.0,76,0.00,,,0.00,WeatherCatV1.10B1784,2013-02-06 09:46:00,
2013-02-06 04:51:00,39.9,33.0,30.08,SSE,168,0.0,2.0,76,0.00,,,0.00,WeatherCatV1.10B1784,2013-02-06 09:51:00,
2013-02-06 04:56:00,39.8,32.9,30.08,South,186,0.0,3.0,76,0.00,,,0.00,WeatherCatV1.10B1784,2013-02-06 09:56:00,
2013-02-06 05:01:00,39.7,32.8,30.08,NNE,27,0.0,3.0,76,0.00,,,0.00,WeatherCatV1.10B1784,2013-02-06 10:01:00,
2013-02-06 05:06:00,39.6,32.7,30.08,South,172,2.0,4.0,76,0.00,,,0.00,WeatherCatV1.10B1784,2013-02-06 10:06:00,
2013-02-06 05:11:00,39.5,32.6,30.08,SSE,167,1.0,1.0,76,0.00,,,0.00,WeatherCatV1.10B1784,2013-02-06 10:11:00,
2013-02-06 05:16:00,39.5,32.6,30.09,South,188,0.0,1.0,76,0.00,,,0.00,WeatherCatV1.10B1784,2013-02-06 10:16:00,
2013-02-06 05:21:00,39.4,32.5,30.09,SSW,205,0.0,2.0,76,0.00,,,0.00,WeatherCatV1.10B1784,2013-02-06 10:21:00,
2013-02-06 05:26:00,39.3,32.7,30.09,South,189,1.0,4.0,77,0.00,,,0.00,WeatherCatV1.10B1784,2013-02-06 10:26:00,
2013-02-06 05:31:00,39.1,32.5,30.10,South,185,1.0,2.0,77,0.00,,,0.00,WeatherCatV1.10B1784,2013-02-06 10:31:00,
2013-02-06 05:36:00,39.1,32.5,30.10,SSW,203,2.0,2.0,77,0.00,,,0.00,WeatherCatV1.10B1784,2013-02-06 10:36:00,
2013-02-06 05:41:00,38.9,32.3,30.10,SSW,202,2.0,3.0,77,0.00,,,0.00,WeatherCatV1.10B1784,2013-02-06 10:41:00,
2013-02-06 05:46:00,38.8,32.2,30.10,South,189,0.0,2.0,77,0.00,,,0.00,WeatherCatV1.10B1784,2013-02-06 10:46:00,
2013-02-06 05:51:00,38.8,32.2,30.10,South,173,3.0,5.0,77,0.00,,,0.00,WeatherCatV1.10B1784,2013-02-06 10:51:00,
2013-02-06 05:56:00,38.8,32.2,30.10,SSW,194,2.0,2.0,77,0.00,,,0.00,WeatherCatV1.10B1784,2013-02-06 10:56:00,
2013-02-06 06:01:00,38.8,32.2,30.10,SSE,160,0.0,0.0,77,0.00,,,0.00,WeatherCatV1.10B1784,2013-02-06 11:01:00,
2013-02-06 06:06:00,38.6,32.0,30.11,North,355,0.0,1.0,77,0.00,,,0.00,WeatherCatV1.10B1784,2013-02-06 11:06:00,
2013-02-06 06:16:00,38.4,32.2,30.11,ESE,121,0.0,0.0,78,0.00,,,0.00,WeatherCatV1.10B1784,2013-02-06 11:16:00,
2013-02-06 06:21:00,38.0,31.8,30.12,SE,138,0.0,1.0,78,0.00,,,0.00,WeatherCatV1.10B1784,2013-02-06 11:21:00,
2013-02-06 06:26:00,37.7,31.5,30.12,ESE,107,0.0,2.0,78,0.00,,,0.00,WeatherCatV1.10B1784,2013-02-06 11:26:00,
2013-02-06 06:31:00,37.6,31.4,30.12,ESE,116,1.0,2.0,78,0.00,,,0.00,WeatherCatV1.10B1784,2013-02-06 11:31:00,
2013-02-06 06:36:00,37.6,31.7,30.12,NE,44,0.0,0.0,79,0.00,,,0.00,WeatherCatV1.10B1784,2013-02-06 11:36:00,
2013-02-06 06:41:00,37.1,31.2,30.13,NE,44,0.0,0.0,79,0.00,,,0.00,WeatherCatV1.10B1784,2013-02-06 11:41:00,
2013-02-06 06:46:00,36.8,31.2,30.13,NE,44,0.0,0.0,80,0.00,,,0.00,WeatherCatV1.10B1784,2013-02-06 11:46:00,
2013-02-06 06:51:00,36.6,31.0,30.13,East,92,1.0,2.0,80,0.00,,,0.00,WeatherCatV1.10B1784,2013-02-06 11:51:00,
2013-02-06 06:56:00,36.6,31.0,30.13,East,91,0.0,0.0,80,0.00,,,0.00,WeatherCatV1.10B1784,2013-02-06 11:56:00,
2013-02-06 07:01:00,36.6,31.0,30.13,East,96,0.0,0.0,80,0.00,,,0.00,WeatherCatV1.10B1784,2013-02-06 12:01:00,
2013-02-06 07:06:00,36.5,31.2,30.14,East,95,0.0,0.0,81,0.00,,,0.00,WeatherCatV1.10B1784,2013-02-06 12:06:00,
2013-02-06 07:11:00,36.3,31.0,30.14,ENE,74,0.0,0.0,81,0.00,,,0.00,WeatherCatV1.10B1784,2013-02-06 12:11:00,
2013-02-06 07:16:00,36.1,30.8,30.14,NNE,24,1.0,2.0,81,0.00,,,0.00,WeatherCatV1.10B1784,2013-02-06 12:16:00,
2013-02-06 07:21:00,35.9,30.6,30.14,NNE,24,0.0,0.0,81,0.00,,,0.00,WeatherCatV1.10B1784,2013-02-06 12:21:00,
2013-02-06 07:26:00,35.7,30.8,30.14,NE,51,0.0,1.0,82,0.00,,,0.00,WeatherCatV1.10B1784,2013-02-06 12:26:00,
2013-02-06 07:31:00,35.5,30.6,30.15,NE,36,1.0,2.0,82,0.00,,,0.00,WeatherCatV1.10B1784,2013-02-06 12:31:00,
2013-02-06 07:36:00,35.3,30.4,30.15,NE,38,0.0,1.0,82,0.00,,,0.00,WeatherCatV1.10B1784,2013-02-06 12:36:00,
2013-02-06 07:41:00,35.4,30.8,30.15,NE,38,1.0,2.0,83,0.00,,,0.00,WeatherCatV1.10B1784,2013-02-06 12:41:00,
2013-02-06 07:46:00,35.4,30.5,30.15,NE,43,0.0,0.0,82,0.00,,,0.00,WeatherCatV1.10B1784,2013-02-06 12:46:00,
2013-02-06 07:51:00,35.5,30.6,30.16,ENE,69,1.0,1.0,82,0.00,,,0.00,WeatherCatV1.10B1784,2013-02-06 12:51:00,
2013-02-06 07:56:00,35.7,30.8,30.16,NNE,21,0.0,0.0,82,0.00,,,0.00,WeatherCatV1.10B1784,2013-02-06 12:56:00,
2013-02-06 08:01:00,35.9,30.6,30.16,SSE,155,0.0,1.0,81,0.00,,,0.00,WeatherCatV1.10B1784,2013-02-06 13:01:00,
2013-02-06 08:06:00,36.1,30.8,30.16,SW,219,0.0,2.0,81,0.00,,,0.00,WeatherCatV1.10B1784,2013-02-06 13:06:00,
2013-02-06 08:11:00,36.3,31.0,30.17,SW,222,2.0,2.0,81,0.00,,,0.00,WeatherCatV1.10B1784,2013-02-06 13:11:00,
2013-02-06 08:16:00,36.4,31.1,30.17,NE,41,0.0,0.0,81,0.00,,,0.00,WeatherCatV1.10B1784,2013-02-06 13:16:00,
2013-02-06 08:21:00,36.5,31.2,30.17,NE,43,0.0,0.0,81,0.00,,,0.00,WeatherCatV1.10B1784,2013-02-06 13:21:00,
2013-02-06 08:26:00,36.7,31.7,30.17,NE,43,0.0,0.0,82,0.00,,,0.00,WeatherCatV1.10B1784,2013-02-06 13:26:00,
2013-02-06 08:31:00,37.0,31.7,30.17,NE,43,0.0,0.0,81,0.00,,,0.00,WeatherCatV1.10B1784,2013-02-06 13:31:00,
2013-02-06 08:36:00,37.3,31.7,30.17,ESE,104,0.0,2.0,80,0.00,,,0.00,WeatherCatV1.10B1784,2013-02-06 13:36:00,
2013-02-06 08:41:00,37.8,31.9,30.17,SSE,148,0.0,1.0,79,0.00,,,0.00,WeatherCatV1.10B1784,2013-02-06 13:41:00,
2013-02-06 08:46:00,38.3,32.1,30.17,SSE,148,0.0,0.0,78,0.00,,,0.00,WeatherCatV1.10B1784,2013-02-06 13:46:00,
2013-02-06 08:51:00,38.8,31.9,30.17,SSE,167,0.0,1.0,76,0.00,,,0.00,WeatherCatV1.10B1784,2013-02-06 13:51:00,
2013-02-06 08:56:00,39.4,32.5,30.17,South,177,1.0,2.0,76,0.00,,,0.00,WeatherCatV1.10B1784,2013-02-06 13:56:00,
2013-02-06 09:01:00,39.6,32.3,30.17,SSE,158,0.0,2.0,75,0.00,,,0.00,WeatherCatV1.10B1784,2013-02-06 14:01:00,
2013-02-06 09:06:00,39.8,32.5,30.17,South,171,2.0,2.0,75,0.00,,,0.00,WeatherCatV1.10B1784,2013-02-06 14:06:00,
2013-02-06 09:11:00,40.2,32.2,30.17,South,182,1.0,2.0,73,0.00,,,0.00,WeatherCatV1.10B1784,2013-02-06 14:11:00,
2013-02-06 09:16:00,40.6,31.9,30.17,South,191,0.0,2.0,71,0.00,,,0.00,WeatherCatV1.10B1784,2013-02-06 14:16:00,
2013-02-06 09:21:00,41.0,32.7,30.17,SSW,192,2.0,2.0,72,0.00,,,0.00,WeatherCatV1.10B1784,2013-02-06 14:21:00,
2013-02-06 09:26:00,41.4,32.4,30.17,ESE,117,0.0,3.0,70,0.00,,,0.00,WeatherCatV1.10B1784,2013-02-06 14:26:00,
2013-02-06 09:31:00,41.8,32.4,30.17,ESE,123,1.0,3.0,69,0.00,,,0.00,WeatherCatV1.10B1784,2013-02-06 14:31:00,
2013-02-06 09:36:00,42.3,32.9,30.17,SSE,148,2.0,3.0,69,0.00,,,0.00,WeatherCatV1.10B1784,2013-02-06 14:36:00,
2013-02-06 09:41:00,42.9,32.7,30.17,South,186,2.0,5.0,67,0.00,,,0.00,WeatherCatV1.10B1784,2013-02-06 14:41:00,
2013-02-06 09:46:00,43.4,33.2,30.17,SSE,165,1.0,3.0,67,0.00,,,0.00,WeatherCatV1.10B1784,2013-02-06 14:46:00,
2013-02-06 09:51:00,43.9,32.9,30.18,SSE,165,1.0,4.0,65,0.00,,,0.00,WeatherCatV1.10B1784,2013-02-06 14:51:00,
2013-02-06 09:56:00,44.4,33.0,30.18,SSW,207,3.0,5.0,64,0.00,,,0.00,WeatherCatV1.10B1784,2013-02-06 14:56:00,
2013-02-06 10:01:00,44.8,33.4,30.18,SW,233,3.0,4.0,64,0.00,,,0.00,WeatherCatV1.10B1784,2013-02-06 15:01:00,
2013-02-06 10:06:00,45.0,32.4,30.17,NNE,22,0.0,8.0,61,0.00,,,0.00,WeatherCatV1.10B1784,2013-02-06 15:06:00,
2013-02-06 10:11:00,45.4,33.2,30.17,SW,214,3.0,5.0,62,0.00,,,0.00,WeatherCatV1.10B1784,2013-02-06 15:11:00,
2013-02-06 10:16:00,45.9,32.8,30.18,SSE,167,2.0,7.0,60,0.00,,,0.00,WeatherCatV1.10B1784,2013-02-06 15:16:00,
2013-02-06 10:21:00,46.0,32.5,30.18,SW,219,4.0,4.0,59,0.00,,,0.00,WeatherCatV1.10B1784,2013-02-06 15:21:00,
2013-02-06 10:26:00,46.3,32.3,30.18,WSW,237,3.0,7.0,58,0.00,,,0.00,WeatherCatV1.10B1784,2013-02-06 15:26:00,
2013-02-06 10:31:00,46.4,32.4,30.19,SSW,198,1.0,5.0,58,0.00,,,0.00,WeatherCatV1.10B1784,2013-02-06 15:31:00,
2013-02-06 10:36:00,46.7,32.3,30.19,SSE,167,2.0,9.0,57,0.00,,,0.00,WeatherCatV1.10B1784,2013-02-06 15:36:00,
2013-02-06 10:41:00,46.8,32.8,30.19,NNE,19,0.0,6.0,58,0.00,,,0.00,WeatherCatV1.10B1784,2013-02-06 15:41:00,
2013-02-06 10:46:00,47.1,32.2,30.19,SW,221,3.0,5.0,56,0.00,,,0.00,WeatherCatV1.10B1784,2013-02-06 15:46:00,
2013-02-06 10:51:00,47.2,31.4,30.19,NW,307,0.0,5.0,54,0.00,,,0.00,WeatherCatV1.10B1784,2013-02-06 15:51:00,
2013-02-06 10:56:00,47.7,31.4,30.19,NW,312,0.0,9.0,53,0.00,,,0.00,WeatherCatV1.10B1784,2013-02-06 15:56:00,
2013-02-06 11:01:00,47.8,31.5,30.19,South,172,4.0,4.0,53,0.00,,,0.00,WeatherCatV1.10B1784,2013-02-06 16:01:00,
2013-02-06 11:06:00,47.8,31.0,30.19,East,89,2.0,2.0,52,0.00,,,0.00,WeatherCatV1.10B1784,2013-02-06 16:06:00,
2013-02-06 11:11:00,48.2,30.4,30.20,SE,143,3.0,7.0,50,0.00,,,0.00,WeatherCatV1.10B1784,2013-02-06 16:11:00,
2013-02-06 11:16:00,48.5,29.7,30.19,NE,48,0.0,9.0,48,0.00,,,0.00,WeatherCatV1.10B1784,2013-02-06 16:16:00,
2013-02-06 11:21:00,49.0,29.1,30.19,ENE,58,2.0,7.0,46,0.00,,,0.00,WeatherCatV1.10B1784,2013-02-06 16:21:00,
2013-02-06 11:26:00,49.0,28.6,30.20,South,173,5.0,7.0,45,0.00,,,0.00,WeatherCatV1.10B1784,2013-02-06 16:26:00,
2013-02-06 11:31:00,49.1,25.8,30.20,North,351,3.0,10.0,40,0.00,,,0.00,WeatherCatV1.10B1784,2013-02-06 16:31:00,
2013-02-06 11:36:00,49.4,28.4,30.20,NNE,22,1.0,6.0,44,0.00,,,0.00,WeatherCatV1.10B1784,2013-02-06 16:36:00,
2013-02-06 11:41:00,49.6,30.7,30.19,SSW,194,4.0,5.0,48,0.00,,,0.00,WeatherCatV1.10B1784,2013-02-06 16:41:00,
2013-02-06 11:46:00,50.2,29.1,30.19,SSE,148,1.0,4.0,44,0.00,,,0.00,WeatherCatV1.10B1784,2013-02-06 16:46:00,
2013-02-06 11:51:00,50.8,28.0,30.19,WSW,248,1.0,5.0,41,0.00,,,0.00,WeatherCatV1.10B1784,2013-02-06 16:51:00,
2013-02-06 11:56:00,51.1,27.6,30.19,NNW,336,5.0,8.0,40,0.00,,,0.00,WeatherCatV1.10B1784,2013-02-06 16:56:00,
2013-02-06 12:01:00,51.0,26.3,30.19,SE,134,0.0,2.0,38,0.00,,,0.00,WeatherCatV1.10B1784,2013-02-06 17:01:00,
2013-02-06 12:06:00,51.4,27.3,30.19,SW,225,1.0,2.0,39,0.00,,,0.00,WeatherCatV1.10B1784,2013-02-06 17:06:00,
2013-02-06 12:11:00,52.0,25.9,30.19,South,173,5.0,6.0,36,0.00,,,0.00,WeatherCatV1.10B1784,2013-02-06 17:11:00,
2013-02-06 12:16:00,52.2,24.0,30.19,SE,146,4.0,4.0,33,0.00,,,0.00,WeatherCatV1.10B1784,2013-02-06 17:16:00,
2013-02-06 12:21:00,52.1,23.2,30.19,NE,43,3.0,5.0,32,0.00,,,0.00,WeatherCatV1.10B1784,2013-02-06 17:21:00,
2013-02-06 12:26:00,52.0,23.1,30.18,SE,132,0.0,2.0,32,0.00,,,0.00,WeatherCatV1.10B1784,2013-02-06 17:26:00,
2013-02-06 12:31:00,52.5,23.5,30.18,South,169,4.0,5.0,32,0.00,,,0.00,WeatherCatV1.10B1784,2013-02-06 17:31:00,
2013-02-06 12:36:00,53.2,24.1,30.18,SSE,160,3.0,5.0,32,0.00,,,0.00,WeatherCatV1.10B1784,2013-02-06 17:36:00,
2013-02-06 12:41:00,53.3,23.4,30.18,SSW,196,4.0,4.0,31,0.00,,,0.00,WeatherCatV1.10B1784,2013-02-06 17:41:00,
2013-02-06 12:46:00,53.3,23.4,30.18,SE,146,2.0,4.0,31,0.00,,,0.00,WeatherCatV1.10B1784,2013-02-06 17:46:00,
2013-02-06 12:51:00,53.3,22.7,30.17,South,188,3.0,4.0,30,0.00,,,0.00,WeatherCatV1.10B1784,2013-02-06 17:51:00,
2013-02-06 12:56:00,53.3,21.9,30.17,SSE,157,2.0,7.0,29,0.00,,,0.00,WeatherCatV1.10B1784,2013-02-06 17:56:00,
2013-02-06 13:01:00,53.2,22.6,30.17,SSE,158,2.0,5.0,30,0.00,,,0.00,WeatherCatV1.10B1784,2013-02-06 18:01:00,
2013-02-06 13:06:00,53.6,22.1,30.17,SSW,211,1.0,6.0,29,0.00,,,0.00,WeatherCatV1.10B1784,2013-02-06 18:06:00,
2013-02-06 13:11:00,54.1,22.6,30.17,South,175,4.0,5.0,29,0.00,,,0.00,WeatherCatV1.10B1784,2013-02-06 18:11:00,
2013-02-06 13:16:00,54.8,23.2,30.17,SSE,159,1.0,3.0,29,0.00,,,0.00,WeatherCatV1.10B1784,2013-02-06 18:16:00,
2013-02-06 13:21:00,55.3,23.6,30.17,SSE,159,1.0,6.0,29,0.00,,,0.00,WeatherCatV1.10B1784,2013-02-06 18:21:00,
2013-02-06 13:26:00,55.2,23.5,30.17,SSW,204,2.0,3.0,29,0.00,,,0.00,WeatherCatV1.10B1784,2013-02-06 18:26:00,
2013-02-06 13:31:00,55.1,23.4,30.17,ENE,61,1.0,8.0,29,0.00,,,0.00,WeatherCatV1.10B1784,2013-02-06 18:31:00,
2013-02-06 13:36:00,55.1,22.6,30.17,ESE,113,1.0,1.0,28,0.00,,,0.00,WeatherCatV1.10B1784,2013-02-06 18:36:00,
2013-02-06 13:41:00,55.3,23.6,30.17,South,178,2.0,5.0,29,0.00,,,0.00,WeatherCatV1.10B1784,2013-02-06 18:41:00,
2013-02-06 13:46:00,56.1,23.5,30.16,SE,137,2.0,2.0,28,0.00,,,0.00,WeatherCatV1.10B1784,2013-02-06 18:46:00,
2013-02-06 13:51:00,56.6,23.0,30.17,SSW,211,6.0,6.0,27,0.00,,,0.00,WeatherCatV1.10B1784,2013-02-06 18:51:00,
2013-02-06 13:56:00,56.5,22.0,30.16,WSW,244,4.0,7.0,26,0.00,,,0.00,WeatherCatV1.10B1784,2013-02-06 18:56:00,
2013-02-06 14:01:00,56.3,23.6,30.16,East,79,5.0,5.0,28,0.00,,,0.00,WeatherCatV1.10B1784,2013-02-06 19:01:00,
2013-02-06 14:06:00,56.2,21.8,30.16,SW,234,0.0,4.0,26,0.00,,,0.00,WeatherCatV1.10B1784,2013-02-06 19:06:00,
2013-02-06 14:11:00,56.6,21.2,30.16,ENE,61,0.0,5.0,25,0.00,,,0.00,WeatherCatV1.10B1784,2013-02-06 19:11:00,
2013-02-06 14:16:00,56.9,21.5,30.16,East,89,5.0,5.0,25,0.00,,,0.00,WeatherCatV1.10B1784,2013-02-06 19:16:00,
2013-02-06 14:21:00,56.6,21.2,30.16,North,5,0.0,2.0,25,0.00,,,0.00,WeatherCatV1.10B1784,2013-02-06 19:21:00,
2013-02-06 14:26:00,56.7,24.0,30.16,WSW,237,1.0,3.0,28,0.00,,,0.00,WeatherCatV1.10B1784,2013-02-06 19:26:00,
2013-02-06 14:31:00,57.1,21.6,30.15,SE,144,3.0,8.0,25,0.00,,,0.00,WeatherCatV1.10B1784,2013-02-06 19:31:00,
2013-02-06 14:36:00,57.1,21.6,30.16,South,171,0.0,2.0,25,0.00,,,0.00,WeatherCatV1.10B1784,2013-02-06 19:36:00,
2013-02-06 14:41:00,57.6,22.0,30.16,WNW,292,1.0,3.0,25,0.00,,,0.00,WeatherCatV1.10B1784,2013-02-06 19:41:00,
2013-02-06 14:46:00,57.7,22.1,30.16,East,86,3.0,7.0,25,0.00,,,0.00,WeatherCatV1.10B1784,2013-02-06 19:46:00,
2013-02-06 14:51:00,58.0,25.1,30.16,North,5,3.0,3.0,28,0.00,,,0.00,WeatherCatV1.10B1784,2013-02-06 19:51:00,
2013-02-06 14:56:00,58.6,22.9,30.16,NNW,348,2.0,2.0,25,0.00,,,0.00,WeatherCatV1.10B1784,2013-02-06 19:56:00,
2013-02-06 15:01:00,58.9,23.1,30.16,East,94,2.0,8.0,25,0.00,,,0.00,WeatherCatV1.10B1784,2013-02-06 20:01:00,
2013-02-06 15:06:00,59.1,23.3,30.16,NE,42,0.0,6.0,25,0.00,,,0.00,WeatherCatV1.10B1784,2013-02-06 20:06:00,
2013-02-06 15:11:00,58.9,22.2,30.16,South,175,2.0,7.0,24,0.00,,,0.00,WeatherCatV1.10B1784,2013-02-06 20:11:00,
2013-02-06 15:16:00,58.7,23.0,30.16,West,272,1.0,3.0,25,0.00,,,0.00,WeatherCatV1.10B1784,2013-02-06 20:16:00,
2013-02-06 15:21:00,58.9,23.1,30.16,ESE,117,5.0,7.0,25,0.00,,,0.00,WeatherCatV1.10B1784,2013-02-06 20:21:00,
2013-02-06 15:26:00,58.1,23.4,30.16,SW,225,2.0,4.0,26,0.00,,,0.00,WeatherCatV1.10B1784,2013-02-06 20:26:00,
2013-02-06 15:31:00,58.1,24.3,30.16,SSE,154,2.0,3.0,27,0.00,,,0.00,WeatherCatV1.10B1784,2013-02-06 20:31:00,
2013-02-06 15:36:00,57.9,23.2,30.16,South,169,3.0,4.0,26,0.00,,,0.00,WeatherCatV1.10B1784,2013-02-06 20:36:00,
2013-02-06 15:41:00,57.4,21.9,30.16,East,94,0.0,2.0,25,0.00,,,0.00,WeatherCatV1.10B1784,2013-02-06 20:41:00,
2013-02-06 15:46:00,57.3,22.7,30.16,SSE,162,1.0,3.0,26,0.00,,,0.00,WeatherCatV1.10B1784,2013-02-06 20:46:00,
2013-02-06 15:51:00,57.5,23.8,30.16,SSE,165,2.0,3.0,27,0.00,,,0.00,WeatherCatV1.10B1784,2013-02-06 20:51:00,
2013-02-06 15:56:00,57.5,22.0,30.16,South,169,1.0,4.0,25,0.00,,,0.00,WeatherCatV1.10B1784,2013-02-06 20:56:00,
2013-02-06 16:01:00,57.5,22.0,30.16,South,178,0.0,3.0,25,0.00,,,0.00,WeatherCatV1.10B1784,2013-02-06 21:01:00,
2013-02-06 16:06:00,57.8,23.1,30.16,SSW,195,2.0,3.0,26,0.00,,,0.00,WeatherCatV1.10B1784,2013-02-06 21:06:00,
2013-02-06 16:11:00,58.0,23.3,30.16,South,171,0.0,2.0,26,0.00,,,0.00,WeatherCatV1.10B1784,2013-02-06 21:11:00,
2013-02-06 16:16:00,58.2,23.5,30.16,SSW,213,2.0,2.0,26,0.00,,,0.00,WeatherCatV1.10B1784,2013-02-06 21:16:00,
2013-02-06 16:21:00,58.5,23.7,30.16,ENE,69,4.0,5.0,26,0.00,,,0.00,WeatherCatV1.10B1784,2013-02-06 21:21:00,
2013-02-06 16:26:00,57.7,22.1,30.15,NE,55,0.0,10.0,25,0.00,,,0.00,WeatherCatV1.10B1784,2013-02-06 21:26:00,
2013-02-06 16:31:00,57.4,21.9,30.15,ESE,116,1.0,3.0,25,0.00,,,0.00,WeatherCatV1.10B1784,2013-02-06 21:31:00,
2013-02-06 16:36:00,57.0,21.5,30.16,East,87,1.0,9.0,25,0.00,,,0.00,WeatherCatV1.10B1784,2013-02-06 21:36:00,
2013-02-06 16:41:00,56.7,22.2,30.16,North,5,4.0,6.0,26,0.00,,,0.00,WeatherCatV1.10B1784,2013-02-06 21:41:00,
2013-02-06 16:46:00,56.9,23.3,30.16,South,179,2.0,2.0,27,0.00,,,0.00,WeatherCatV1.10B1784,2013-02-06 21:46:00,
2013-02-06 16:51:00,57.0,23.4,30.16,East,94,1.0,7.0,27,0.00,,,0.00,WeatherCatV1.10B1784,2013-02-06 21:51:00,
2013-02-06 16:56:00,56.7,23.1,30.16,South,186,1.0,4.0,27,0.00,,,0.00,WeatherCatV1.10B1784,2013-02-06 21:56:00,
2013-02-06 17:01:00,56.4,23.7,30.17,SSE,162,0.0,4.0,28,0.00,,,0.00,WeatherCatV1.10B1784,2013-02-06 22:01:00,
2013-02-06 17:06:00,56.1,23.5,30.17,South,178,0.0,2.0,28,0.00,,,0.00,WeatherCatV1.10B1784,2013-02-06 22:06:00,
2013-02-06 17:11:00,55.8,23.2,30.17,ESE,103,0.0,7.0,28,0.00,,,0.00,WeatherCatV1.10B1784,2013-02-06 22:11:00,
2013-02-06 17:16:00,55.4,22.8,30.17,SSW,196,2.0,3.0,28,0.00,,,0.00,WeatherCatV1.10B1784,2013-02-06 22:16:00,
2013-02-06 17:21:00,55.0,23.3,30.17,SSW,206,0.0,1.0,29,0.00,,,0.00,WeatherCatV1.10B1784,2013-02-06 22:21:00,
2013-02-06 17:26:00,54.7,23.1,30.17,South,180,2.0,4.0,29,0.00,,,0.00,WeatherCatV1.10B1784,2013-02-06 22:26:00,
2013-02-06 17:31:00,54.3,23.5,30.17,SSW,200,0.0,2.0,30,0.00,,,0.00,WeatherCatV1.10B1784,2013-02-06 22:31:00,
2013-02-06 17:36:00,54.0,23.3,30.17,East,89,0.0,2.0,30,0.00,,,0.00,WeatherCatV1.10B1784,2013-02-06 22:36:00,
2013-02-06 17:41:00,53.4,23.5,30.18,SSW,198,0.0,2.0,31,0.00,,,0.00,WeatherCatV1.10B1784,2013-02-06 22:41:00,
2013-02-06 17:46:00,53.1,26.9,30.18,SSW,197,0.0,0.0,36,0.00,,,0.00,WeatherCatV1.10B1784,2013-02-06 22:46:00,
2013-02-06 17:51:00,52.8,26.6,30.18,SSW,198,0.0,0.0,36,0.00,,,0.00,WeatherCatV1.10B1784,2013-02-06 22:51:00,
2013-02-06 17:56:00,52.2,25.4,30.17,SSW,198,0.0,1.0,35,0.00,,,0.00,WeatherCatV1.10B1784,2013-02-06 22:56:00,
2013-02-06 18:01:00,51.6,26.8,30.17,SW,228,0.0,0.0,38,0.00,,,0.00,WeatherCatV1.10B1784,2013-02-06 23:01:00,
2013-02-06 18:06:00,51.2,25.2,30.17,SW,228,0.0,0.0,36,0.00,,,0.00,WeatherCatV1.10B1784,2013-02-06 23:06:00,
2013-02-06 18:11:00,50.7,26.0,30.17,North,0,1.0,1.0,38,0.00,,,0.00,WeatherCatV1.10B1784,2013-02-06 23:11:00,
2013-02-06 18:16:00,50.1,25.5,30.17,North,0,0.0,0.0,38,0.00,,,0.00,WeatherCatV1.10B1784,2013-02-06 23:16:00,
2013-02-06 18:21:00,49.5,25.0,30.18,North,0,0.0,1.0,38,0.00,,,0.00,WeatherCatV1.10B1784,2013-02-06 23:21:00,
2013-02-06 18:26:00,48.9,23.8,30.18,NNE,26,0.0,0.0,37,0.00,,,0.00,WeatherCatV1.10B1784,2013-02-06 23:26:00,
2013-02-06 18:31:00,48.5,25.3,30.19,NNE,26,0.0,1.0,40,0.00,,,0.00,WeatherCatV1.10B1784,2013-02-06 23:31:00,
2013-02-06 18:36:00,48.1,25.5,30.19,NNE,26,0.0,2.0,41,0.00,,,0.00,WeatherCatV1.10B1784,2013-02-06 23:36:00,
2013-02-06 18:41:00,47.6,25.1,30.19,NNE,26,0.0,0.0,41,0.00,,,0.00,WeatherCatV1.10B1784,2013-02-06 23:41:00,
2013-02-06 18:46:00,47.2,25.3,30.19,NE,48,0.0,1.0,42,0.00,,,0.00,WeatherCatV1.10B1784,2013-02-06 23:46:00,
2013-02-06 18:51:00,46.8,24.9,30.19,NE,48,0.0,0.0,42,0.00,,,0.00,WeatherCatV1.10B1784,2013-02-06 23:51:00,
2013-02-06 18:56:00,46.5,24.1,30.19,ENE,63,0.0,2.0,41,0.00,,,0.00,WeatherCatV1.10B1784,2013-02-06 23:56:00,
2013-02-06 19:01:00,46.2,25.0,30.19,ENE,63,0.0,1.0,43,0.00,,,0.00,WeatherCatV1.10B1784,2013-02-07 00:01:00,
2013-02-06 19:06:00,46.0,24.8,30.19,NE,45,0.0,2.0,43,0.00,,,0.00,WeatherCatV1.10B1784,2013-02-07 00:06:00,
2013-02-06 19:11:00,45.8,24.0,30.19,NE,45,1.0,1.0,42,0.00,,,0.00,WeatherCatV1.10B1784,2013-02-07 00:11:00,
2013-02-06 19:16:00,45.6,23.8,30.19,NE,46,1.0,2.0,42,0.00,,,0.00,WeatherCatV1.10B1784,2013-02-07 00:16:00,
2013-02-06 19:21:00,45.4,24.8,30.19,NE,44,1.0,2.0,44,0.00,,,0.00,WeatherCatV1.10B1784,2013-02-07 00:21:00,
2013-02-06 19:26:00,45.1,24.5,30.19,NNE,25,2.0,2.0,44,0.00,,,0.00,WeatherCatV1.10B1784,2013-02-07 00:26:00,
2013-02-06 19:31:00,45.1,24.5,30.19,NNE,25,1.0,1.0,44,0.00,,,0.00,WeatherCatV1.10B1784,2013-02-07 00:31:00,
2013-02-06 19:36:00,45.1,25.0,30.19,NNE,28,1.0,2.0,45,0.00,,,0.00,WeatherCatV1.10B1784,2013-02-07 00:36:00,
2013-02-06 19:41:00,44.8,24.8,30.19,NNE,28,2.0,2.0,45,0.00,,,0.00,WeatherCatV1.10B1784,2013-02-07 00:41:00,
2013-02-06 19:46:00,44.6,24.6,30.19,NE,40,1.0,2.0,45,0.00,,,0.00,WeatherCatV1.10B1784,2013-02-07 00:46:00,
2013-02-06 19:51:00,44.5,23.4,30.19,NNE,28,2.0,2.0,43,0.00,,,0.00,WeatherCatV1.10B1784,2013-02-07 00:51:00,
2013-02-06 19:56:00,44.5,24.0,30.19,NNE,22,1.0,1.0,44,0.00,,,0.00,WeatherCatV1.10B1784,2013-02-07 00:56:00,
2013-02-06 20:01:00,44.4,24.4,30.18,NNE,12,2.0,2.0,45,0.00,,,0.00,WeatherCatV1.10B1784,2013-02-07 01:01:00,
2013-02-06 20:06:00,44.3,24.3,30.18,NNE,30,0.0,2.0,45,0.00,,,0.00,WeatherCatV1.10B1784,2013-02-07 01:06:00,
2013-02-06 20:11:00,44.3,23.8,30.18,NNE,30,1.0,1.0,44,0.00,,,0.00,WeatherCatV1.10B1784,2013-02-07 01:11:00,
2013-02-06 20:16:00,44.2,24.2,30.18,NNE,30,1.0,1.0,45,0.00,,,0.00,WeatherCatV1.10B1784,2013-02-07 01:16:00,
2013-02-06 20:21:00,44.1,24.7,30.18,NNE,30,0.0,2.0,46,0.00,,,0.00,WeatherCatV1.10B1784,2013-02-07 01:21:00,
2013-02-06 20:26:00,44.0,24.0,30.19,NNE,30,0.0,2.0,45,0.00,,,0.00,WeatherCatV1.10B1784,2013-02-07 01:26:00,
2013-02-06 20:31:00,44.1,25.2,30.19,NNE,30,0.0,0.0,47,0.00,,,0.00,WeatherCatV1.10B1784,2013-02-07 01:31:00,
2013-02-06 20:36:00,44.0,26.1,30.19,NNE,30,0.0,0.0,49,0.00,,,0.00,WeatherCatV1.10B1784,2013-02-07 01:36:00,
2013-02-06 20:41:00,43.8,24.9,30.19,NNE,30,0.0,0.0,47,0.00,,,0.00,WeatherCatV1.10B1784,2013-02-07 01:41:00,
2013-02-06 20:46:00,43.7,24.3,30.19,NNE,30,0.0,0.0,46,0.00,,,0.00,WeatherCatV1.10B1784,2013-02-07 01:46:00,
2013-02-06 20:51:00,43.6,23.7,30.19,NNE,30,0.0,1.0,45,0.00,,,0.00,WeatherCatV1.10B1784,2013-02-07 01:51:00,
2013-02-06 20:56:00,43.6,23.1,30.19,NNE,30,0.0,0.0,44,0.00,,,0.00,WeatherCatV1.10B1784,2013-02-07 01:56:00,
2013-02-06 21:01:00,43.6,25.7,30.19,NNE,30,0.0,0.0,49,0.00,,,0.00,WeatherCatV1.10B1784,2013-02-07 02:01:00,
2013-02-06 21:06:00,43.4,25.0,30.19,NNE,30,0.0,0.0,48,0.00,,,0.00,WeatherCatV1.10B1784,2013-02-07 02:06:00,
2013-02-06 21:11:00,43.3,24.4,30.19,NNE,30,0.0,0.0,47,0.00,,,0.00,WeatherCatV1.10B1784,2013-02-07 02:11:00,
2013-02-06 21:16:00,43.1,25.3,30.19,NNE,30,0.0,0.0,49,0.00,,,0.00,WeatherCatV1.10B1784,2013-02-07 02:16:00,
2013-02-06 21:21:00,42.9,24.6,30.20,NNE,30,0.0,0.0,48,0.00,,,0.00,WeatherCatV1.10B1784,2013-02-07 02:21:00,
2013-02-06 21:26:00,42.7,25.4,30.21,NNE,30,0.0,0.0,50,0.00,,,0.00,WeatherCatV1.10B1784,2013-02-07 02:26:00,
2013-02-06 21:31:00,42.5,24.2,30.21,NNE,30,0.0,0.0,48,0.00,,,0.00,WeatherCatV1.10B1784,2013-02-07 02:31:00,
2013-02-06 21:36:00,42.4,25.1,30.22,NNE,30,0.0,0.0,50,0.00,,,0.00,WeatherCatV1.10B1784,2013-02-07 02:36:00,
2013-02-06 21:41:00,42.2,24.4,30.23,NNE,30,0.0,0.0,49,0.00,,,0.00,WeatherCatV1.10B1784,2013-02-07 02:41:00,
2013-02-06 21:46:00,42.1,23.8,30.22,NNE,30,0.0,0.0,48,0.00,,,0.00,WeatherCatV1.10B1784,2013-02-07 02:46:00,
2013-02-06 21:51:00,42.0,24.7,30.23,NNE,30,0.0,0.0,50,0.00,,,0.00,WeatherCatV1.10B1784,2013-02-07 02:51:00,
2013-02-06 21:56:00,41.9,24.6,30.23,NNE,30,0.0,0.0,50,0.00,,,0.00,WeatherCatV1.10B1784,2013-02-07 02:56:00,
2013-02-06 22:01:00,41.7,24.0,30.23,NNE,30,0.0,0.0,49,0.00,,,0.00,WeatherCatV1.10B1784,2013-02-07 03:01:00,
2013-02-06 22:06:00,41.7,24.0,30.23,NE,40,0.0,2.0,49,0.00,,,0.00,WeatherCatV1.10B1784,2013-02-07 03:06:00,
2013-02-06 22:11:00,41.7,24.9,30.23,NE,40,0.0,0.0,51,0.00,,,0.00,WeatherCatV1.10B1784,2013-02-07 03:11:00,
2013-02-06 22:16:00,41.6,25.8,30.24,NE,40,0.0,0.0,53,0.00,,,0.00,WeatherCatV1.10B1784,2013-02-07 03:16:00,
2013-02-06 22:21:00,41.5,25.7,30.23,NE,40,0.0,0.0,53,0.00,,,0.00,WeatherCatV1.10B1784,2013-02-07 03:21:00,
2013-02-06 22:26:00,41.5,25.7,30.23,NE,40,0.0,1.0,53,0.00,,,0.00,WeatherCatV1.10B1784,2013-02-07 03:26:00,
2013-02-06 22:31:00,41.5,24.7,30.23,NE,40,0.0,1.0,51,0.00,,,0.00,WeatherCatV1.10B1784,2013-02-07 03:31:00,
2013-02-06 22:36:00,41.5,25.2,30.22,NE,40,0.0,0.0,52,0.00,,,0.00,WeatherCatV1.10B1784,2013-02-07 03:36:00,
2013-02-06 22:41:00,41.6,25.3,30.22,NE,40,0.0,0.0,52,0.00,,,0.00,WeatherCatV1.10B1784,2013-02-07 03:41:00,
2013-02-06 22:46:00,41.6,26.2,30.21,NE,40,0.0,0.0,54,0.00,,,0.00,WeatherCatV1.10B1784,2013-02-07 03:46:00,
2013-02-06 22:51:00,41.6,25.3,30.21,NE,40,0.0,0.0,52,0.00,,,0.00,WeatherCatV1.10B1784,2013-02-07 03:51:00,
2013-02-06 22:56:00,41.5,26.1,30.21,NE,40,0.0,0.0,54,0.00,,,0.00,WeatherCatV1.10B1784,2013-02-07 03:56:00,
2013-02-06 23:01:00,41.7,24.9,30.21,NE,40,0.0,0.0,51,0.00,,,0.00,WeatherCatV1.10B1784,2013-02-07 04:01:00,
2013-02-06 23:06:00,41.8,25.9,30.21,NE,40,0.0,0.0,53,0.00,,,0.00,WeatherCatV1.10B1784,2013-02-07 04:06:00,
2013-02-06 23:11:00,41.8,25.0,30.21,NE,40,0.0,0.0,51,0.00,,,0.00,WeatherCatV1.10B1784,2013-02-07 04:11:00,
2013-02-06 23:16:00,41.7,24.0,30.20,NE,40,0.0,0.0,49,0.00,,,0.00,WeatherCatV1.10B1784,2013-02-07 04:16:00,
2013-02-06 23:21:00,41.7,25.8,30.20,NE,40,0.0,0.0,53,0.00,,,0.00,WeatherCatV1.10B1784,2013-02-07 04:21:00,
2013-02-06 23:26:00,41.7,24.9,30.21,NE,40,0.0,0.0,51,0.00,,,0.00,WeatherCatV1.10B1784,2013-02-07 04:26:00,
2013-02-06 23:31:00,41.6,24.4,30.21,NE,40,0.0,0.0,50,0.00,,,0.00,WeatherCatV1.10B1784,2013-02-07 04:31:00,
2013-02-06 23:36:00,41.7,25.4,30.20,NE,40,0.0,0.0,52,0.00,,,0.00,WeatherCatV1.10B1784,2013-02-07 04:36:00,
2013-02-06 23:41:00,41.8,25.0,30.20,NE,40,0.0,0.0,51,0.00,,,0.00,WeatherCatV1.10B1784,2013-02-07 04:41:00,
2013-02-06 23:46:00,41.8,24.5,30.21,NE,40,0.0,0.0,50,0.00,,,0.00,WeatherCatV1.10B1784,2013-02-07 04:46:00,
2013-02-06 23:51:00,41.8,24.1,30.21,NE,40,0.0,0.0,49,0.00,,,0.00,WeatherCatV1.10B1784,2013-02-07 04:51:00,
2013-02-06 23:56:00,41.8,24.5,30.21,NE,40,0.0,0.0,50,0.00,,,0.00,WeatherCatV1.10B1784,2013-02-07 04:56:00,